When you browse on this site, cookies collect data to enhance your experience and personalize the content and advertising you see.
Visit our Privacy Policy to learn more. By continuing to use the site, you agree to this use of cookies and data.
EN

Hourly Weather Newcastle

Today, 5 July, Sunday

Time Temperature Precipitation Wind Pressure Humidity
00:00 +17°C° 0 mm 8 mps 739 mmHg 84%
01:00 +17°C° 0.1 mm 8 mps 739 mmHg 84%
02:00 +17°C° 0.1 mm 8 mps 739 mmHg 83%
03:00 +16°C° 0.1 mm 8 mps 739 mmHg 83%
04:00 +15°C° 0.1 mm 8 mps 739 mmHg 83%
05:00 +13°C° 0.1 mm 8 mps 740 mmHg 82%
06:00 +12°C° 0 mm 7 mps 740 mmHg 84%
07:00 +12°C° 0.1 mm 8 mps 741 mmHg 81%
08:00 +12°C° 0.1 mm 8 mps 741 mmHg 77%
09:00 +12°C° 0.1 mm 8 mps 742 mmHg 73%
10:00 +13°C° 0.1 mm 8 mps 742 mmHg 71%
11:00 +13°C° 0.1 mm 8 mps 742 mmHg 69%
12:00 +13°C° 0.1 mm 8 mps 743 mmHg 67%
13:00 +13°C° 0.1 mm 9 mps 743 mmHg 67%
14:00 +13°C° 0.1 mm 9 mps 743 mmHg 68%
15:00 +13°C° 0.1 mm 9 mps 743 mmHg 69%
16:00 +13°C° 0.2 mm 9 mps 743 mmHg 71%
17:00 +12°C° 0.2 mm 8 mps 742 mmHg 72%
18:00 +12°C° 0.2 mm 8 mps 742 mmHg 74%
19:00 +11°C° 0.1 mm 8 mps 743 mmHg 76%
20:00 +11°C° 0.1 mm 7 mps 743 mmHg 77%
21:00 +10°C° 0.1 mm 6 mps 743 mmHg 79%
22:00 +10°C° 0 mm 7 mps 744 mmHg 80%
23:00 +9°C° 0 mm 7 mps 744 mmHg 81%

Tomorrow, 6 July, Monday

Time Temperature Precipitation Wind Pressure Humidity
00:00 +9°C° 0 mm 7 mps 744 mmHg 82%
01:00 +9°C° 0 mm 6 mps 745 mmHg 83%
02:00 +9°C° 0 mm 6 mps 745 mmHg 83%
03:00 +8°C° 0 mm 6 mps 745 mmHg 84%
04:00 +9°C° 0 mm 6 mps 746 mmHg 83%
05:00 +9°C° 0 mm 7 mps 746 mmHg 81%
06:00 +10°C° 0 mm 7 mps 747 mmHg 80%
07:00 +11°C° 0.1 mm 8 mps 747 mmHg 78%
08:00 +12°C° 0.1 mm 8 mps 748 mmHg 76%
09:00 +13°C° 0.1 mm 9 mps 749 mmHg 74%
10:00 +15°C° 0.1 mm 9 mps 749 mmHg 70%
11:00 +15°C° 0.1 mm 8 mps 750 mmHg 66%
12:00 +16°C° 0.1 mm 8 mps 751 mmHg 62%
13:00 +16°C° 0 mm 8 mps 751 mmHg 61%
14:00 +16°C° 0 mm 8 mps 752 mmHg 61%
15:00 +16°C° 0 mm 7 mps 752 mmHg 60%
16:00 +15°C° 0 mm 7 mps 752 mmHg 62%
17:00 +15°C° 0 mm 6 mps 752 mmHg 65%
18:00 +14°C° 0 mm 5 mps 753 mmHg 68%
19:00 +13°C° 0 mm 4 mps 753 mmHg 73%
20:00 +11°C° 0 mm 3 mps 753 mmHg 78%
21:00 +10°C° 0 mm 2 mps 754 mmHg 82%
22:00 +9°C° 0 mm 2 mps 754 mmHg 85%
23:00 +9°C° 0 mm 2 mps 753 mmHg 87%

Day after tomorrow, 7 July, Tuesday

Time Temperature Precipitation Wind Pressure Humidity
00:00 +9°C° 0 mm 1 mps 753 mmHg 89%
01:00 +9°C° 0 mm 1 mps 753 mmHg 90%
02:00 +9°C° 0 mm 1 mps 753 mmHg 91%
03:00 +9°C° 0 mm 1 mps 753 mmHg 92%
04:00 +9°C° 0 mm 2 mps 752 mmHg 91%
05:00 +10°C° 0 mm 2 mps 752 mmHg 89%
06:00 +11°C° 0 mm 3 mps 751 mmHg 88%
07:00 +11°C° 0.1 mm 3 mps 751 mmHg 87%
08:00 +12°C° 0.1 mm 4 mps 751 mmHg 86%
09:00 +12°C° 0.1 mm 4 mps 751 mmHg 85%
10:00 +12°C° 0.2 mm 4 mps 750 mmHg 87%
11:00 +12°C° 0.2 mm 4 mps 750 mmHg 89%
12:00 +12°C° 0.2 mm 3 mps 749 mmHg 91%
13:00 +12°C° 0.8 mm 4 mps 749 mmHg 91%
14:00 +12°C° 0.8 mm 4 mps 748 mmHg 91%
15:00 +12°C° 0.8 mm 4 mps 748 mmHg 91%
16:00 +13°C° 0.4 mm 5 mps 747 mmHg 91%
17:00 +13°C° 0.4 mm 6 mps 747 mmHg 92%
18:00 +13°C° 0.4 mm 6 mps 746 mmHg 92%
19:00 +13°C° 0.1 mm 6 mps 746 mmHg 93%
20:00 +13°C° 0.1 mm 5 mps 746 mmHg 94%
21:00 +14°C° 0.1 mm 4 mps 746 mmHg 94%
22:00 +13°C° 0.1 mm 4 mps 746 mmHg 94%
23:00 +13°C° 0.1 mm 4 mps 746 mmHg 95%

8 July, Wednesday

Time Temperature Precipitation Wind Pressure Humidity
00:00 +13°C° 0.1 mm 3 mps 746 mmHg 95%
01:00 +12°C° 0 mm 3 mps 746 mmHg 95%
02:00 +12°C° 0 mm 3 mps 747 mmHg 95%
03:00 +12°C° 0 mm 3 mps 747 mmHg 96%
04:00 +12°C° 0 mm 3 mps 747 mmHg 95%
05:00 +12°C° 0 mm 3 mps 748 mmHg 95%
06:00 +12°C° 0 mm 4 mps 748 mmHg 95%
07:00 +13°C° 0.1 mm 4 mps 749 mmHg 93%
08:00 +13°C° 0.1 mm 4 mps 749 mmHg 91%
09:00 +13°C° 0.1 mm 3 mps 750 mmHg 89%
10:00 +13°C° 0.1 mm 3 mps 750 mmHg 89%
11:00 +13°C° 0.1 mm 3 mps 750 mmHg 89%
12:00 +13°C° 0.1 mm 3 mps 751 mmHg 89%
13:00 +15°C° 0.1 mm 2 mps 751 mmHg 86%
14:00 +15°C° 0.1 mm 2 mps 751 mmHg 84%
15:00 +16°C° 0.1 mm 2 mps 751 mmHg 82%
16:00 +16°C° 0.1 mm 2 mps 751 mmHg 82%
17:00 +16°C° 0.1 mm 2 mps 751 mmHg 82%
18:00 +16°C° 0.1 mm 2 mps 751 mmHg 82%
19:00 +15°C° 0.1 mm 2 mps 751 mmHg 85%
20:00 +15°C° 0.1 mm 2 mps 751 mmHg 88%
21:00 +14°C° 0.1 mm 2 mps 752 mmHg 91%
22:00 +13°C° 0 mm 2 mps 751 mmHg 92%
23:00 +13°C° 0 mm 2 mps 751 mmHg 93%

9 July, Thursday

Time Temperature Precipitation Wind Pressure Humidity
00:00 +13°C° 0 mm 2 mps 751 mmHg 93%
01:00 +13°C° 0 mm 2 mps 750 mmHg 91%
02:00 +12°C° 0 mm 2 mps 750 mmHg 89%
03:00 +11°C° 0 mm 3 mps 750 mmHg 87%
04:00 +12°C° 0 mm 3 mps 749 mmHg 86%
05:00 +12°C° 0 mm 4 mps 749 mmHg 85%
06:00 +12°C° 0 mm 4 mps 748 mmHg 84%
07:00 +14°C° 0 mm 5 mps 748 mmHg 83%
08:00 +15°C° 0 mm 6 mps 748 mmHg 82%
09:00 +17°C° 0 mm 7 mps 747 mmHg 81%
10:00 +17°C° 0 mm 7 mps 747 mmHg 82%
11:00 +17°C° 0 mm 7 mps 746 mmHg 82%
12:00 +17°C° 0 mm 7 mps 746 mmHg 82%
13:00 +17°C° 0.1 mm 7 mps 745 mmHg 83%
14:00 +17°C° 0.1 mm 7 mps 745 mmHg 84%
15:00 +17°C° 0.1 mm 7 mps 744 mmHg 85%
16:00 +16°C° 0.1 mm 7 mps 744 mmHg 86%
17:00 +16°C° 0.1 mm 6 mps 744 mmHg 86%
18:00 +16°C° 0.1 mm 6 mps 743 mmHg 86%
19:00 +15°C° 0.1 mm 6 mps 744 mmHg 87%
20:00 +14°C° 0.1 mm 6 mps 744 mmHg 87%
21:00 +13°C° 0.1 mm 6 mps 744 mmHg 87%
22:00 +11°C° 0 mm 6 mps 745 mmHg 87%
23:00 +10°C° 0 mm 6 mps 745 mmHg 87%

10 July, Friday

Time Temperature Precipitation Wind Pressure Humidity
00:00 +9°C° 0 mm 5 mps 745 mmHg 87%
01:00 +9°C° 0 mm 6 mps 745 mmHg 85%
02:00 +8°C° 0 mm 6 mps 745 mmHg 83%
03:00 +8°C° 0 mm 6 mps 745 mmHg 81%
04:00 +9°C° 0 mm 7 mps 745 mmHg 81%
05:00 +9°C° 0 mm 7 mps 746 mmHg 80%
06:00 +9°C° 0 mm 8 mps 746 mmHg 80%
07:00 +10°C° 0.1 mm 8 mps 746 mmHg 78%
08:00 +10°C° 0.1 mm 8 mps 746 mmHg 77%
09:00 +11°C° 0.1 mm 9 mps 747 mmHg 76%
10:00 +11°C° 0.2 mm 9 mps 747 mmHg 74%
11:00 +12°C° 0.2 mm 9 mps 747 mmHg 72%
12:00 +13°C° 0.2 mm 9 mps 748 mmHg 70%
13:00 +13°C° 0.3 mm 9 mps 748 mmHg 69%
14:00 +13°C° 0.3 mm 9 mps 749 mmHg 68%
15:00 +13°C° 0.3 mm 8 mps 749 mmHg 67%
16:00 +13°C° 0.1 mm 8 mps 749 mmHg 69%
17:00 +14°C° 0.1 mm 7 mps 750 mmHg 71%
18:00 +13°C° 0.1 mm 6 mps 750 mmHg 73%
19:00 +11°C° 0 mm 6 mps 750 mmHg 77%
20:00 +10°C° 0 mm 5 mps 751 mmHg 80%
21:00 +9°C° 0 mm 5 mps 752 mmHg 84%
22:00 +9°C° 0 mm 5 mps 752 mmHg 85%
23:00 +9°C° 0 mm 5 mps 752 mmHg 86%
Show more